BEL34G GMMN-LPMA

Flight info

Callsign BEL34G
Flight time 1h 24m
Altitude 32000
Route ODAXA UH899 IBALU DCT SUBAL/N0458F310 DCT LIDRO
Aircraft A320/M-SDE3FGHIRWY/LB1

Departure

Time 2026-05-07 17:54
Airport Mohammed V International Airport (GMMN)

Arrival

Time 2026-05-07 19:18
Airport Cristiano Ronaldo International Airport (LPMA)
Time Latitude Longitude Altitude Speed Heading
2026-05-07 16:40 33.37217 -7.58385 653 ft 0 kts 163°
2026-05-07 16:42 33.37214 -7.58384 653 ft 0 kts 163°
2026-05-07 16:43 33.37217 -7.58384 653 ft 0 kts 162°
2026-05-07 16:43 33.37214 -7.58384 653 ft 0 kts 163°
2026-05-07 16:44 33.37216 -7.58381 653 ft 0 kts 118°
2026-05-07 17:23 33.37191 -7.58327 654 ft 12 kts 121°
2026-05-07 17:24 33.37101 -7.58271 654 ft 18 kts 163°
2026-05-07 17:24 33.36983 -7.58239 654 ft 16 kts 181°
2026-05-07 17:24 33.36923 -7.58337 656 ft 17 kts 254°
2026-05-07 17:24 33.36867 -7.58459 655 ft 16 kts 198°
2026-05-07 17:25 33.36766 -7.58435 655 ft 14 kts 164°
2026-05-07 17:25 33.36663 -7.58399 655 ft 20 kts 163°
2026-05-07 17:25 33.36504 -7.58343 657 ft 26 kts 164°
2026-05-07 17:25 33.36339 -7.58288 657 ft 23 kts 164°
2026-05-07 17:26 33.36192 -7.58236 658 ft 21 kts 163°
2026-05-07 17:26 33.36063 -7.58190 659 ft 18 kts 163°
2026-05-07 17:26 33.35951 -7.58154 660 ft 14 kts 165°
2026-05-07 17:26 33.35863 -7.58125 661 ft 12 kts 164°
2026-05-07 17:27 33.35791 -7.58101 661 ft 7 kts 165°
2026-05-07 17:27 33.35753 -7.58088 661 ft 5 kts 165°
2026-05-07 17:27 33.35735 -7.58082 661 ft 3 kts 164°
2026-05-07 17:27 33.35731 -7.58081 661 ft 1 kts 164°
2026-05-07 17:28 33.35730 -7.58080 661 ft 0 kts 164°
2026-05-07 17:28 33.35728 -7.58080 661 ft 1 kts 164°
2026-05-07 17:28 33.35724 -7.58079 661 ft 0 kts 164°
2026-05-07 17:28 33.35720 -7.58077 661 ft 2 kts 164°
2026-05-07 17:29 33.35675 -7.58062 661 ft 9 kts 164°
2026-05-07 17:29 33.35623 -7.58045 662 ft 8 kts 164°
2026-05-07 17:29 33.35569 -7.58027 662 ft 8 kts 164°
2026-05-07 17:29 33.35522 -7.58010 663 ft 3 kts 163°
2026-05-07 17:30 33.35517 -7.58008 663 ft 1 kts 163°
2026-05-07 17:30 33.35513 -7.58007 663 ft 0 kts 163°
2026-05-07 17:30 33.35508 -7.58005 663 ft 1 kts 163°
2026-05-07 17:31 33.35505 -7.58004 663 ft 0 kts 163°
2026-05-07 17:36 33.35482 -7.57996 663 ft 10 kts 163°
2026-05-07 17:36 33.35444 -7.57982 663 ft 0 kts 163°
2026-05-07 17:37 33.35439 -7.57980 663 ft 1 kts 163°
2026-05-07 17:37 33.35437 -7.57980 663 ft 0 kts 163°
2026-05-07 17:37 33.35436 -7.57979 663 ft 1 kts 163°
2026-05-07 17:37 33.35431 -7.57978 663 ft 1 kts 163°
2026-05-07 17:38 33.35428 -7.57976 663 ft 0 kts 163°
2026-05-07 17:38 33.35427 -7.57976 663 ft 0 kts 163°
2026-05-07 17:39 33.35426 -7.57976 663 ft 0 kts 163°
2026-05-07 17:39 33.35425 -7.57976 663 ft 0 kts 163°
2026-05-07 17:41 33.35417 -7.57972 662 ft 4 kts 163°
2026-05-07 17:41 33.35378 -7.57959 664 ft 6 kts 163°
2026-05-07 17:41 33.35342 -7.57948 663 ft 6 kts 168°
2026-05-07 17:42 33.35313 -7.57947 664 ft 0 kts 187°
2026-05-07 17:42 33.35311 -7.57947 664 ft 0 kts 188°
2026-05-07 17:42 33.35310 -7.57948 664 ft 0 kts 189°
2026-05-07 17:43 33.35307 -7.57949 664 ft 0 kts 192°
2026-05-07 17:43 33.35289 -7.57958 664 ft 7 kts 207°
2026-05-07 17:43 33.35260 -7.57995 664 ft 2 kts 238°
2026-05-07 17:44 33.35259 -7.57999 664 ft 0 kts 240°
2026-05-07 17:48 33.35252 -7.58017 664 ft 4 kts 248°
2026-05-07 17:49 33.35245 -7.58042 664 ft 3 kts 251°
2026-05-07 17:49 33.35241 -7.58057 663 ft 1 kts 252°
2026-05-07 17:49 33.35239 -7.58061 664 ft 0 kts 252°
2026-05-07 17:50 33.35238 -7.58069 664 ft 5 kts 252°
2026-05-07 17:51 33.35214 -7.58164 665 ft 13 kts 257°
2026-05-07 17:51 33.35209 -7.58267 666 ft 10 kts 315°
2026-05-07 17:51 33.35247 -7.58274 666 ft 0 kts 347°
2026-05-07 17:51 33.35249 -7.58275 666 ft 1 kts 346°
2026-05-07 17:52 33.35250 -7.58275 666 ft 0 kts 346°
2026-05-07 17:53 33.35256 -7.58277 666 ft 6 kts 346°
2026-05-07 17:53 33.35501 -7.58358 662 ft 71 kts 344°
2026-05-07 17:53 33.36169 -7.58586 657 ft 126 kts 344°
2026-05-07 17:53 33.37162 -7.58934 706 ft 165 kts 343°
2026-05-07 17:54 33.38223 -7.59347 1421 ft 160 kts 342°
2026-05-07 17:54 33.39299 -7.59734 2116 ft 159 kts 345°
2026-05-07 17:54 33.40343 -7.60125 2726 ft 159 kts 339°
2026-05-07 17:54 33.41348 -7.60689 3326 ft 159 kts 329°
2026-05-07 17:55 33.42277 -7.61423 3882 ft 161 kts 321°
2026-05-07 17:55 33.43161 -7.62358 4162 ft 184 kts 311°
2026-05-07 17:55 33.44034 -7.63650 4313 ft 215 kts 302°
2026-05-07 17:55 33.44890 -7.65241 4680 ft 236 kts 301°
2026-05-07 17:56 33.45836 -7.66939 5178 ft 253 kts 301°
2026-05-07 17:56 33.46857 -7.68739 5703 ft 269 kts 300°
2026-05-07 17:56 33.47802 -7.70435 6024 ft 290 kts 301°
2026-05-07 17:56 33.48977 -7.72576 6004 ft 324 kts 302°
2026-05-07 17:57 33.50425 -7.74813 6007 ft 356 kts 315°
2026-05-07 17:57 33.51720 -7.76163 6008 ft 374 kts 318°
2026-05-07 17:57 33.54426 -7.78903 6524 ft 385 kts 315°
2026-05-07 17:57 33.56379 -7.80895 7745 ft 369 kts 317°
2026-05-07 17:58 33.57955 -7.82469 8924 ft 353 kts 317°
2026-05-07 17:58 33.59804 -7.84291 10321 ft 337 kts 317°
2026-05-07 17:58 33.61635 -7.86100 10823 ft 350 kts 316°
2026-05-07 17:58 33.63540 -7.87999 11331 ft 359 kts 316°
2026-05-07 17:59 33.65472 -7.89935 11972 ft 363 kts 316°
2026-05-07 17:59 33.67395 -7.91868 12644 ft 367 kts 316°
2026-05-07 17:59 33.69365 -7.93850 13303 ft 371 kts 316°
2026-05-07 17:59 33.71345 -7.95847 13945 ft 374 kts 316°
2026-05-07 18:00 33.73356 -7.97872 14562 ft 377 kts 315°
2026-05-07 18:00 33.75364 -7.99892 15167 ft 379 kts 315°
2026-05-07 18:00 33.77392 -8.01936 15779 ft 381 kts 315°
2026-05-07 18:00 33.79441 -8.04003 16395 ft 384 kts 315°
2026-05-07 18:01 33.81488 -8.06070 16997 ft 386 kts 315°
2026-05-07 18:01 33.83542 -8.08148 17594 ft 388 kts 315°
2026-05-07 18:01 33.85625 -8.10256 18198 ft 391 kts 315°
2026-05-07 18:01 33.87719 -8.12377 18722 ft 393 kts 315°
2026-05-07 18:02 33.91937 -8.16648 19760 ft 398 kts 314°
2026-05-07 18:02 33.94063 -8.18800 20270 ft 401 kts 314°
2026-05-07 18:02 33.96205 -8.20971 20776 ft 403 kts 314°
2026-05-07 18:03 33.98353 -8.23156 21263 ft 406 kts 314°
2026-05-07 18:03 34.00459 -8.25371 21738 ft 407 kts 311°
2026-05-07 18:03 34.02516 -8.27728 22205 ft 408 kts 309°
2026-05-07 18:03 34.04521 -8.30161 22668 ft 409 kts 308°
2026-05-07 18:04 34.06511 -8.32639 23108 ft 411 kts 307°
2026-05-07 18:04 34.08512 -8.35139 23540 ft 414 kts 308°
2026-05-07 18:04 34.10528 -8.37635 23905 ft 416 kts 308°
2026-05-07 18:04 34.12572 -8.40136 24270 ft 418 kts 308°
2026-05-07 18:05 34.14619 -8.42624 24632 ft 420 kts 308°
2026-05-07 18:05 34.16666 -8.45099 24992 ft 421 kts 308°
2026-05-07 18:05 34.18740 -8.47600 25339 ft 422 kts 308°
2026-05-07 18:05 34.20825 -8.50116 25685 ft 424 kts 308°
2026-05-07 18:06 34.22906 -8.52632 26028 ft 425 kts 308°
2026-05-07 18:06 34.24999 -8.55168 26359 ft 427 kts 308°
2026-05-07 18:06 34.27103 -8.57726 26687 ft 428 kts 308°
2026-05-07 18:06 34.29208 -8.60293 27009 ft 429 kts 308°
2026-05-07 18:07 34.31303 -8.62859 27311 ft 431 kts 308°
2026-05-07 18:07 34.33388 -8.65414 27605 ft 433 kts 308°
2026-05-07 18:07 34.35513 -8.68014 27892 ft 435 kts 308°
2026-05-07 18:07 34.37656 -8.70632 28180 ft 436 kts 308°
2026-05-07 18:08 34.39797 -8.73243 28450 ft 438 kts 308°
2026-05-07 18:08 34.41943 -8.75866 28708 ft 439 kts 307°
2026-05-07 18:08 34.43883 -8.78720 28955 ft 433 kts 298°
2026-05-07 18:08 34.45369 -8.81801 29181 ft 428 kts 290°
2026-05-07 18:09 34.46509 -8.85115 29416 ft 426 kts 286°
2026-05-07 18:09 34.47613 -8.88480 29640 ft 428 kts 287°
2026-05-07 18:09 34.48720 -8.91841 29900 ft 428 kts 287°
2026-05-07 18:09 34.49826 -8.95193 30197 ft 427 kts 287°
2026-05-07 18:10 34.50924 -8.98520 30466 ft 426 kts 286°
2026-05-07 18:10 34.52025 -9.01856 30750 ft 425 kts 286°
2026-05-07 18:10 34.53112 -9.05155 31011 ft 425 kts 286°
2026-05-07 18:10 34.54211 -9.08496 31271 ft 424 kts 286°
2026-05-07 18:11 34.55306 -9.11820 31540 ft 423 kts 286°
2026-05-07 18:11 34.56027 -9.14013 31715 ft 423 kts 286°
2026-05-07 18:11 34.57483 -9.18455 31946 ft 425 kts 285°
2026-05-07 18:12 34.59675 -9.25204 31973 ft 433 kts 285°
2026-05-07 18:12 34.61891 -9.32010 31971 ft 439 kts 285°
2026-05-07 18:13 34.64106 -9.38960 31970 ft 440 kts 281°
2026-05-07 18:13 34.64607 -9.42564 31969 ft 431 kts 267°
2026-05-07 18:13 34.64366 -9.46155 31972 ft 427 kts 258°
2026-05-07 18:14 34.63486 -9.53329 31972 ft 428 kts 258°
2026-05-07 18:14 34.62591 -9.60474 31973 ft 430 kts 258°
2026-05-07 18:15 34.61699 -9.67652 31973 ft 431 kts 258°
2026-05-07 18:15 34.60800 -9.74892 31975 ft 433 kts 258°
2026-05-07 18:16 34.59901 -9.82135 31975 ft 434 kts 258°
2026-05-07 18:16 34.58991 -9.89325 31967 ft 430 kts 258°
2026-05-07 18:16 34.58545 -9.92868 31977 ft 418 kts 257°
2026-05-07 18:17 34.58117 -9.96293 31975 ft 404 kts 257°
2026-05-07 18:17 34.57258 -10.03008 31973 ft 400 kts 257°
2026-05-07 18:18 34.56398 -10.09622 31983 ft 401 kts 257°
2026-05-07 18:18 34.55497 -10.16327 31980 ft 402 kts 257°
2026-05-07 18:19 34.54599 -10.23027 31979 ft 402 kts 257°
2026-05-07 18:19 34.53708 -10.29708 31983 ft 402 kts 257°
2026-05-07 18:20 34.52964 -10.35315 31985 ft 402 kts 257°
2026-05-07 18:20 34.52080 -10.42016 31985 ft 402 kts 257°
2026-05-07 18:21 34.51205 -10.48680 31987 ft 402 kts 257°
2026-05-07 18:21 34.50328 -10.55406 31985 ft 402 kts 256°
2026-05-07 18:22 34.49236 -10.62029 31995 ft 398 kts 250°
2026-05-07 18:22 34.47693 -10.68431 31998 ft 397 kts 251°
2026-05-07 18:23 34.46526 -10.74995 31997 ft 399 kts 256°
2026-05-07 18:23 34.45692 -10.81643 31998 ft 400 kts 257°
2026-05-07 18:24 34.44901 -10.88323 31992 ft 399 kts 257°
2026-05-07 18:24 34.44042 -10.94978 31987 ft 399 kts 256°
2026-05-07 18:25 34.43152 -11.01568 31991 ft 399 kts 256°
2026-05-07 18:25 34.42260 -11.08196 31995 ft 399 kts 256°
2026-05-07 18:26 34.41364 -11.14832 31992 ft 399 kts 256°
2026-05-07 18:26 34.40468 -11.21471 31997 ft 399 kts 256°
2026-05-07 18:27 34.39571 -11.28101 32000 ft 399 kts 255°
2026-05-07 18:27 34.38671 -11.34728 31993 ft 399 kts 255°
2026-05-07 18:28 34.37767 -11.41347 31994 ft 398 kts 255°
2026-05-07 18:28 34.36864 -11.47928 31997 ft 398 kts 255°
2026-05-07 18:29 34.35950 -11.54543 31995 ft 398 kts 255°
2026-05-07 18:29 34.35037 -11.61164 31996 ft 398 kts 255°
2026-05-07 18:30 34.34117 -11.67787 31997 ft 398 kts 255°
2026-05-07 18:30 34.33190 -11.74392 31998 ft 398 kts 255°
2026-05-07 18:31 34.32272 -11.80954 32000 ft 398 kts 255°
2026-05-07 18:31 34.31348 -11.87572 31999 ft 397 kts 255°
2026-05-07 18:32 34.30413 -11.94152 32001 ft 397 kts 254°
2026-05-07 18:32 34.29482 -12.00696 32002 ft 396 kts 254°
2026-05-07 18:33 34.28555 -12.07278 32003 ft 396 kts 254°
2026-05-07 18:33 34.27621 -12.13818 32004 ft 395 kts 254°
2026-05-07 18:34 34.26677 -12.20374 32005 ft 395 kts 254°
2026-05-07 18:34 34.25732 -12.26918 32004 ft 394 kts 254°
2026-05-07 18:35 34.24781 -12.33454 32004 ft 394 kts 254°
2026-05-07 18:35 34.23843 -12.39932 32003 ft 393 kts 254°
2026-05-07 18:36 34.22901 -12.46439 32006 ft 393 kts 254°
2026-05-07 18:36 34.21953 -12.52932 32009 ft 392 kts 253°
2026-05-07 18:37 34.20999 -12.59422 32010 ft 392 kts 253°
2026-05-07 18:37 34.20044 -12.65912 32006 ft 391 kts 253°
2026-05-07 18:38 34.19087 -12.72386 32006 ft 391 kts 253°
2026-05-07 18:38 34.18119 -12.78843 32004 ft 391 kts 253°
2026-05-07 18:39 34.17161 -12.85256 32002 ft 390 kts 253°
2026-05-07 18:39 34.16195 -12.91720 32003 ft 390 kts 253°
2026-05-07 18:40 34.15228 -12.98170 32002 ft 390 kts 253°
2026-05-07 18:40 34.14288 -13.04637 31984 ft 391 kts 254°
2026-05-07 18:41 34.13355 -13.11087 31980 ft 392 kts 254°
2026-05-07 18:41 34.12412 -13.17587 31982 ft 393 kts 253°
2026-05-07 18:42 34.11464 -13.24104 31986 ft 393 kts 253°
2026-05-07 18:42 34.10516 -13.30607 31994 ft 394 kts 253°
2026-05-07 18:43 34.09546 -13.37086 32009 ft 392 kts 253°
2026-05-07 18:43 34.08549 -13.43507 32012 ft 391 kts 253°
2026-05-07 18:44 34.07532 -13.49958 32011 ft 390 kts 253°
2026-05-07 18:44 34.06530 -13.56365 32009 ft 390 kts 253°
2026-05-07 18:45 34.05525 -13.62804 32011 ft 391 kts 253°
2026-05-07 18:45 34.04513 -13.69240 32004 ft 391 kts 253°
2026-05-07 18:46 34.03495 -13.75683 32005 ft 391 kts 253°
2026-05-07 18:46 34.02476 -13.82123 31998 ft 391 kts 253°
2026-05-07 18:47 34.01455 -13.88576 31996 ft 392 kts 253°
2026-05-07 18:47 34.00426 -13.95028 32005 ft 392 kts 253°
2026-05-07 18:48 33.99398 -14.01440 32004 ft 392 kts 253°
2026-05-07 18:48 33.98360 -14.07892 32004 ft 393 kts 253°
2026-05-07 18:49 33.97320 -14.14359 32004 ft 393 kts 253°
2026-05-07 18:49 33.96279 -14.20833 32000 ft 393 kts 253°
2026-05-07 18:50 33.95223 -14.27313 31993 ft 394 kts 253°
2026-05-07 18:50 33.94169 -14.33783 31991 ft 394 kts 253°
2026-05-07 18:51 33.93116 -14.40276 31990 ft 395 kts 253°
2026-05-07 18:51 33.92055 -14.46731 31987 ft 395 kts 253°
2026-05-07 18:52 33.90983 -14.53221 31986 ft 396 kts 254°
2026-05-07 18:52 33.89909 -14.59732 31985 ft 396 kts 254°
2026-05-07 18:53 33.88828 -14.66254 31983 ft 397 kts 254°
2026-05-07 18:53 33.87736 -14.72797 31653 ft 398 kts 255°
2026-05-07 18:53 33.87195 -14.76063 31408 ft 399 kts 255°
2026-05-07 18:54 33.86650 -14.79347 31166 ft 400 kts 255°
2026-05-07 18:54 33.86104 -14.82630 30925 ft 401 kts 255°
2026-05-07 18:54 33.85552 -14.85926 30686 ft 402 kts 255°
2026-05-07 18:54 33.85008 -14.89182 30453 ft 403 kts 255°
2026-05-07 18:55 33.84452 -14.92489 30213 ft 403 kts 255°
2026-05-07 18:55 33.83892 -14.95795 29976 ft 404 kts 256°
2026-05-07 18:55 33.83331 -14.99110 29690 ft 403 kts 256°
2026-05-07 18:55 33.82774 -15.02407 29411 ft 402 kts 256°
2026-05-07 18:56 33.82218 -15.05691 29131 ft 400 kts 256°
2026-05-07 18:56 33.81671 -15.08930 28856 ft 399 kts 257°
2026-05-07 18:56 33.81121 -15.12190 28582 ft 397 kts 257°
2026-05-07 18:56 33.80569 -15.15440 28310 ft 396 kts 257°
2026-05-07 18:57 33.80018 -15.18675 28043 ft 395 kts 257°
2026-05-07 18:57 33.79466 -15.21907 27773 ft 393 kts 258°
2026-05-07 18:57 33.78914 -15.25126 27511 ft 392 kts 258°
2026-05-07 18:57 33.78363 -15.28326 27250 ft 391 kts 258°
2026-05-07 18:58 33.77812 -15.31520 26989 ft 389 kts 258°
2026-05-07 18:58 33.77263 -15.34700 26735 ft 388 kts 258°
2026-05-07 18:58 33.76717 -15.37866 26479 ft 387 kts 259°
2026-05-07 18:58 33.76173 -15.41030 26225 ft 385 kts 259°
2026-05-07 18:59 33.75631 -15.44176 25971 ft 384 kts 259°
2026-05-07 18:59 33.75086 -15.47322 25723 ft 382 kts 259°
2026-05-07 18:59 33.74546 -15.50441 25476 ft 381 kts 260°
2026-05-07 18:59 33.74016 -15.53517 25234 ft 380 kts 260°
2026-05-07 19:00 33.73477 -15.56618 24989 ft 378 kts 260°
2026-05-07 19:00 33.72936 -15.59713 24752 ft 377 kts 260°
2026-05-07 19:00 33.72401 -15.62763 24510 ft 376 kts 260°
2026-05-07 19:00 33.71857 -15.65869 24272 ft 374 kts 261°
2026-05-07 19:01 33.71328 -15.68915 24038 ft 373 kts 261°
2026-05-07 19:01 33.70797 -15.71975 23804 ft 371 kts 261°
2026-05-07 19:01 33.70271 -15.74993 23570 ft 370 kts 261°
2026-05-07 19:01 33.69739 -15.78016 23298 ft 369 kts 261°
2026-05-07 19:02 33.69215 -15.80984 23010 ft 367 kts 261°
2026-05-07 19:02 33.68687 -15.83975 22651 ft 365 kts 261°
2026-05-07 19:02 33.68162 -15.86957 22270 ft 363 kts 261°
2026-05-07 19:02 33.67636 -15.89914 21898 ft 361 kts 260°
2026-05-07 19:03 33.66782 -15.92755 21528 ft 365 kts 248°
2026-05-07 19:03 33.65375 -15.95325 21164 ft 372 kts 235°
2026-05-07 19:03 33.64162 -15.96799 20967 ft 377 kts 226°
2026-05-07 19:03 33.61233 -15.99212 20628 ft 383 kts 219°
2026-05-07 19:04 33.58993 -16.00923 20371 ft 382 kts 219°
2026-05-07 19:04 33.57509 -16.02056 20213 ft 381 kts 219°
2026-05-07 19:04 33.55275 -16.03766 19959 ft 380 kts 219°
2026-05-07 19:04 33.53052 -16.05471 19710 ft 379 kts 219°
2026-05-07 19:05 33.50838 -16.07165 19416 ft 376 kts 219°
2026-05-07 19:05 33.48635 -16.08849 18897 ft 374 kts 219°
2026-05-07 19:05 33.46444 -16.10535 18378 ft 373 kts 219°
2026-05-07 19:05 33.44259 -16.12210 17798 ft 372 kts 219°
2026-05-07 19:06 33.42073 -16.13878 17215 ft 371 kts 219°
2026-05-07 19:06 33.37754 -16.17172 16083 ft 369 kts 218°
2026-05-07 19:06 33.35595 -16.18816 15527 ft 368 kts 218°
2026-05-07 19:07 33.33435 -16.20458 14980 ft 366 kts 218°
2026-05-07 19:07 33.31290 -16.22087 14453 ft 365 kts 218°
2026-05-07 19:07 33.29152 -16.23713 13930 ft 363 kts 217°
2026-05-07 19:07 33.27035 -16.25325 13134 ft 360 kts 217°
2026-05-07 19:08 33.24925 -16.26931 12137 ft 355 kts 217°
2026-05-07 19:08 33.22901 -16.28462 11616 ft 337 kts 217°
2026-05-07 19:08 33.20960 -16.29929 11114 ft 333 kts 217°
2026-05-07 19:08 33.18999 -16.31419 10645 ft 333 kts 217°
2026-05-07 19:09 33.17059 -16.32891 10522 ft 330 kts 217°
2026-05-07 19:09 33.15123 -16.34360 10409 ft 330 kts 217°
2026-05-07 19:09 33.13178 -16.35832 10266 ft 329 kts 216°
2026-05-07 19:09 33.11243 -16.37296 10123 ft 329 kts 216°
2026-05-07 19:10 33.09315 -16.38754 9972 ft 328 kts 216°
2026-05-07 19:10 33.07374 -16.40225 9347 ft 330 kts 216°
2026-05-07 19:10 33.05459 -16.41675 8820 ft 324 kts 216°
2026-05-07 19:10 33.03584 -16.43095 8311 ft 321 kts 216°
2026-05-07 19:11 33.01706 -16.44513 7832 ft 317 kts 216°
2026-05-07 19:11 32.99887 -16.45880 7548 ft 301 kts 216°
2026-05-07 19:11 32.98131 -16.47197 7005 ft 291 kts 216°
2026-05-07 19:11 32.96472 -16.48440 6629 ft 276 kts 216°
2026-05-07 19:12 32.94868 -16.49644 6025 ft 270 kts 216°
2026-05-07 19:12 32.93282 -16.50843 5525 ft 270 kts 217°
2026-05-07 19:12 32.91869 -16.52219 5148 ft 265 kts 225°
2026-05-07 19:12 32.90494 -16.53703 4688 ft 260 kts 224°
2026-05-07 19:13 32.89169 -16.55120 4268 ft 258 kts 224°
2026-05-07 19:13 32.87870 -16.56502 4192 ft 243 kts 224°
2026-05-07 19:13 32.86646 -16.57804 4117 ft 229 kts 224°
2026-05-07 19:13 32.85490 -16.59035 4025 ft 217 kts 224°
2026-05-07 19:14 32.84378 -16.60219 3765 ft 214 kts 224°
2026-05-07 19:14 32.83265 -16.61403 3445 ft 214 kts 224°
2026-05-07 19:14 32.82162 -16.62577 3154 ft 211 kts 224°
2026-05-07 19:14 32.81074 -16.63738 2858 ft 210 kts 223°
2026-05-07 19:15 32.80000 -16.64886 2627 ft 204 kts 224°
2026-05-07 19:15 32.78956 -16.66006 2357 ft 196 kts 224°
2026-05-07 19:15 32.78011 -16.67016 2131 ft 175 kts 223°
2026-05-07 19:15 32.77234 -16.67842 1959 ft 158 kts 224°
2026-05-07 19:16 32.76439 -16.68689 1798 ft 144 kts 225°
2026-05-07 19:16 32.75711 -16.69471 1608 ft 140 kts 226°
2026-05-07 19:16 32.75053 -16.70294 1434 ft 137 kts 234°
2026-05-07 19:16 32.74527 -16.71225 1312 ft 134 kts 243°
2026-05-07 19:17 32.74064 -16.72204 1250 ft 137 kts 240°
2026-05-07 19:17 32.73512 -16.73116 1138 ft 137 kts 229°
2026-05-07 19:17 32.72821 -16.73893 985 ft 137 kts 223°
2026-05-07 19:17 32.72145 -16.74667 790 ft 136 kts 224°
2026-05-07 19:18 32.71482 -16.75467 565 ft 134 kts 227°
2026-05-07 19:18 32.70807 -16.76247 289 ft 135 kts 226°
2026-05-07 19:18 32.70150 -16.77023 194 ft 127 kts 225°
2026-05-07 19:18 32.69691 -16.77560 177 ft 49 kts 222°
2026-05-07 19:19 32.69511 -16.77776 169 ft 35 kts 228°
2026-05-07 19:19 32.69380 -16.77924 163 ft 15 kts 216°
2026-05-07 19:19 32.69286 -16.77940 163 ft 14 kts 114°
2026-05-07 19:19 32.69289 -16.77882 167 ft 2 kts 132°
2026-05-07 19:20 32.69274 -16.77867 169 ft 3 kts 141°
2026-05-07 19:20 32.69270 -16.77863 169 ft 0 kts 141°
2026-05-07 19:20 32.69266 -16.77859 170 ft 2 kts 141°
2026-05-07 19:20 32.69247 -16.77840 172 ft 4 kts 140°
2026-05-07 19:21 32.69236 -16.77829 173 ft 0 kts 139°